Mobile, AL

4:13 PM CDT on March 28, 2017 (GMT -0500)
Mobile Regional

Weather History for KMOB - July, 2014

Change the Weather History Date:

Saturday, July 19, 2014

  Actual Average Record
Temperature  
Mean Temperature 78 °F 82 °F  
Max Temperature 83 °F 91 °F 98 °F (2000)
Min Temperature 73 °F 73 °F 65 °F (1923)
Cooling Degree Days 13 17  
Month to date cooling degree days 283 321  
Year to date cooling degree days 1031 1210  
Since 1 June cooling degree days 693 765  
Growing Degree Days 28 (Base 50)    
Moisture  
Dew Point 75 °F    
Average Humidity 90    
Maximum Humidity 100    
Minimum Humidity 79    
Precipitation  
Precipitation 2.39 in 0.24 in 10.07 in (1997)
Month to date precipitation 5.05 4.42  
Year to date precipitation 51.70 37.37  
Sea Level Pressure  
Sea Level Pressure 30.01 in    
Wind  
Wind Speed 6 mph (SSW)    
Max Wind Speed 22 mph    
Max Gust Speed 38 mph    
Visibility 7 miles    
Events Fog , Rain , Thunderstorm    
T = Trace of Precipitation, MM = Missing Value Source: NWS Daily Summary

Daily Weather History Graph

Daily Weather History Graph

Search for Another Location

Airport or City:

Trip Planner

Search our weather history database for the weather conditions in past years. The results will help you decide how hot, cold, wet, or windy it might be!

Date:

Astronomy

Jul. 19, 2014 Rise Set
Actual Time 6:02 AM CDT 7:55 PM CDT
Civil Twilight 5:35 AM CDT 8:22 PM CDT
Nautical Twilight 5:03 AM CDT 8:54 PM CDT
Astronomical Twilight 4:28 AM CDT 9:29 PM CDT
Moon 12:25 AM CDT (7/19) 1:46 PM CDT (7/19)
Length of Visible Light 14h 46m
Length of Day
13h 52m
Last Quarter, 43% of the Moon is Illuminated
Jul 19
Last Quarter
Jul 26
New
Aug 3
First Quarter
Aug 10
Full
Aug 17
Last Quarter

Hourly Weather History & Observations

Time (CDT) Temp. Heat Index Dew Point Humidity Pressure Visibility Wind Dir Wind Speed Gust Speed Precip Events Conditions
12:56 AM 73.9 °F - 73.9 °F 100% 30.01 in 10.0 mi SSE 4.6 mph - N/A   Overcast
1:22 AM 73.9 °F - 73.9 °F 100% 30.00 in 9.0 mi SE 5.8 mph - N/A   Overcast
1:56 AM 75.0 °F - 75.0 °F 100% 29.99 in 4.0 mi South 8.1 mph - 0.03 in Rain Rain
2:56 AM 75.0 °F - 75.0 °F 100% 29.97 in 10.0 mi SSE 3.5 mph - 0.01 in Rain Light Rain
3:56 AM 73.9 °F - 73.9 °F 100% 29.96 in 3.0 mi Calm Calm - 0.05 in Rain Rain
4:03 AM 73.9 °F - 73.9 °F 100% 29.97 in 2.0 mi Calm Calm - 0.04 in Rain Heavy Rain
4:11 AM 73.9 °F - 73.9 °F 100% 29.97 in 1.0 mi NNW 3.5 mph - 0.14 in Rain Heavy Rain
4:28 AM 73.9 °F - 73.9 °F 100% 29.98 in 1.2 mi NW 8.1 mph - 0.47 in Rain , Thunderstorm Heavy Rain
4:41 AM 73.9 °F - 73.9 °F 100% 29.99 in 0.8 mi SW 6.9 mph - 0.84 in Rain Heavy Rain
4:51 AM 73.4 °F - 73.4 °F 100% 29.99 in 0.8 mi NW 5.8 mph - 1.17 in Rain Heavy Rain
4:52 AM 73.4 °F - 73.4 °F 100% 29.99 in 0.8 mi WNW 5.8 mph - 1.17 in Rain , Thunderstorm Heavy Rain
4:56 AM 73.0 °F - 73.0 °F 100% 29.99 in 1.5 mi SSW 8.1 mph - 1.23 in Rain , Thunderstorm Heavy Rain
4:58 AM 73.4 °F - 73.4 °F 100% 29.99 in 1.2 mi Variable 3.5 mph - N/A Rain , Thunderstorm Heavy Thunderstorms and Rain
5:06 AM 73.0 °F - 73.0 °F 100% 29.99 in 2.0 mi SSE 4.6 mph - 0.11 in Rain , Thunderstorm Light Thunderstorms and Rain
5:14 AM 73.0 °F - 73.0 °F 100% 29.98 in 10.0 mi ESE 3.5 mph - 0.11 in Rain , Thunderstorm Light Thunderstorms and Rain
5:18 AM 73.0 °F - 73.0 °F 100% 29.99 in 10.0 mi North - - 0.12 in Rain , Thunderstorm Light Rain
5:25 AM 73.0 °F - 73.0 °F 100% 29.99 in 10.0 mi NNW 3.5 mph - 0.12 in Thunderstorm Overcast
5:56 AM 73.0 °F - 73.0 °F 100% 30.00 in 6.0 mi SSW 3.5 mph - 0.19 in Rain Light Rain
6:11 AM 73.0 °F - 73.0 °F 100% 30.00 in 10.0 mi SSW 5.8 mph - 0.01 in   Mostly Cloudy
6:56 AM 73.0 °F - 73.0 °F 100% 29.99 in 10.0 mi SW 6.9 mph - 0.01 in   Scattered Clouds
7:27 AM 73.0 °F - 73.0 °F 100% 30.02 in 10.0 mi South 3.5 mph - N/A   Mostly Cloudy
7:56 AM 73.9 °F - 73.9 °F 100% 30.02 in 10.0 mi Calm Calm - N/A   Mostly Cloudy
8:56 AM 78.1 °F - 77.0 °F 96% 30.03 in 10.0 mi Variable 4.6 mph - N/A   Mostly Cloudy
9:13 AM 78.1 °F - 77.0 °F 96% 30.03 in 10.0 mi SW 6.9 mph - N/A   Mostly Cloudy
9:56 AM 80.1 °F 85.8 °F 77.0 °F 90% 30.01 in 10.0 mi SSW 6.9 mph - N/A   Mostly Cloudy
10:56 AM 82.9 °F 91.8 °F 77.0 °F 82% 30.01 in 10.0 mi SW 9.2 mph - N/A   Mostly Cloudy
11:03 AM 80.1 °F 85.8 °F 77.0 °F 90% 30.02 in 10.0 mi South 11.5 mph 16.1 mph N/A Thunderstorm Mostly Cloudy
11:11 AM 77.0 °F - 77.0 °F 100% 30.03 in 1.5 mi South 15.0 mph 25.3 mph 0.02 in Rain , Thunderstorm Heavy Rain
11:19 AM 75.0 °F - 75.0 °F 100% 30.05 in 0.5 mi WSW 16.1 mph 38.0 mph 0.35 in Fog , Rain , Thunderstorm Heavy Rain
11:22 AM 75.0 °F - 75.0 °F 100% 30.05 in 0.8 mi WSW 16.1 mph 38.0 mph 0.45 in Rain , Thunderstorm Heavy Thunderstorms and Rain
11:27 AM 73.9 °F - 73.9 °F 100% 30.05 in 1.0 mi WSW 11.5 mph 21.9 mph 0.51 in Rain , Thunderstorm Heavy Thunderstorms and Rain
11:36 AM 73.9 °F - 73.9 °F 100% 30.05 in 0.8 mi WSW 9.2 mph 17.3 mph 0.75 in Rain , Thunderstorm Heavy Thunderstorms and Rain
11:42 AM 73.9 °F - 73.9 °F 100% 30.05 in 1.2 mi SW 10.4 mph - 0.81 in Rain , Thunderstorm Heavy Thunderstorms and Rain
11:51 AM 73.4 °F - 73.4 °F 100% 30.04 in 2.5 mi SW 8.1 mph - 0.85 in Rain , Thunderstorm Thunderstorms and Rain
11:56 AM 73.9 °F - 73.9 °F 100% 30.04 in 4.0 mi WSW 8.1 mph - 0.86 in Rain , Thunderstorm Thunderstorms and Rain
12:18 PM 75.9 °F - 75.9 °F 100% 30.05 in 10.0 mi SW 11.5 mph 17.3 mph 0.01 in   Overcast
12:56 PM 77.0 °F - 75.9 °F 96% 30.03 in 10.0 mi WSW 5.8 mph - 0.01 in   Mostly Cloudy
1:56 PM 79.0 °F - 73.9 °F 84% 30.02 in 10.0 mi WSW 9.2 mph - N/A   Scattered Clouds
2:56 PM 79.0 °F - 75.0 °F 88% 30.01 in 10.0 mi SW 3.5 mph - N/A   Scattered Clouds
3:56 PM 79.0 °F - 75.9 °F 90% 30.01 in 10.0 mi SSW 5.8 mph - N/A   Mostly Cloudy
4:56 PM 82.0 °F 89.4 °F 75.9 °F 82% 29.99 in 10.0 mi SSW 8.1 mph - N/A   Mostly Cloudy
5:15 PM 82.0 °F 89.4 °F 75.9 °F 82% 30.00 in 10.0 mi South 6.9 mph - N/A   Scattered Clouds
5:26 PM 82.0 °F 89.4 °F 75.9 °F 82% 29.99 in 10.0 mi SSW 8.1 mph - N/A   Mostly Cloudy
5:42 PM 82.9 °F 91.8 °F 77.0 °F 82% 30.00 in 10.0 mi SW 5.8 mph - N/A   Scattered Clouds
5:56 PM 82.0 °F 89.4 °F 75.9 °F 82% 29.99 in 10.0 mi SW 4.6 mph - N/A   Clear
6:56 PM 82.0 °F 89.4 °F 75.9 °F 82% 29.99 in 10.0 mi SSE 6.9 mph - N/A   Scattered Clouds
7:56 PM 80.1 °F 85.4 °F 75.9 °F 87% 29.99 in 10.0 mi SSW 3.5 mph - N/A   Clear
8:56 PM 78.1 °F - 75.9 °F 93% 30.00 in 10.0 mi South 6.9 mph - N/A   Clear
9:56 PM 77.0 °F - 75.2 °F 94% 30.00 in 10.0 mi SSE 6.9 mph - N/A   Clear
10:56 PM 75.9 °F - 75.9 °F 100% 30.00 in 10.0 mi South 4.6 mph - N/A   Clear
11:56 PM 77.0 °F - 77.0 °F 100% 30.00 in 10.0 mi South 4.6 mph - N/A   Overcast